Jackson, KY

11:33 AM EST on November 20, 2019 (GMT -0500)
Carroll

Weather History for KJKL - September, 2019

Change the Weather History Date:

Monday, September 9, 2019

  Actual Average Record
Temperature  
Mean Temperature 75 °F 70 °F  
Max Temperature 89 °F 80 °F 93 °F (2002)
Min Temperature 61 °F 61 °F 46 °F (1998)
Degree Days  
Heating Degree Days 0 1  
Month to date heating degree days 0 1  
Since 1 July heating degree days 0 3  
Cooling Degree Days 10 6  
Month to date cooling degree days 90 63  
Year to date cooling degree days 1227 1041  
Growing Degree Days 25 (Base 50)    
Moisture  
Dew Point 62 °F    
Average Humidity 67    
Maximum Humidity 93    
Minimum Humidity 40    
Precipitation  
Precipitation 0.00 in 0.11 in 1.21 in (1997)
Month to date precipitation 0.00 0.96  
Year to date precipitation 39.46 34.51  
Snow  
Snow 0.00 in 0.00 in - ()
Month to date snowfall 0.0 0.0  
Since 1 July snowfall 0.0 0.0  
Since 1 September snowfall 0.0 0.0  
Snow Depth 0.00 in    
Sea Level Pressure  
Sea Level Pressure 30.15 in    
Wind  
Wind Speed 0 mph (North)    
Max Wind Speed 7 mph    
Max Gust Speed 11 mph    
Visibility 10 miles    
Events      
T = Trace of Precipitation, MM = Missing Value Source: NWS Daily Summary

Daily Weather History Graph

Daily Weather History Graph

Search for Another Location

Airport or City:

Astronomy

Sep. 09, 2019 Rise Set
Actual Time 7:10 AM EDT 7:50 PM EDT
Civil Twilight 6:43 AM EDT 8:17 PM EDT
Nautical Twilight 6:12 AM EDT 8:48 PM EDT
Astronomical Twilight 5:40 AM EDT 9:20 PM EDT
Moon 5:40 PM EDT (9/9) 2:46 AM EDT (9/9)
Length of Visible Light 13h 33m
Length of Day
12h 40m
Waxing Gibbous, 83% of the Moon is Illuminated
Sep 9
Waxing Gibbous
Sep 14
Full
Sep 21
Last Quarter
Sep 28
New
Oct 5
First Quarter

Hourly Weather History & Observations

Time (EDT) Temp. Heat Index Dew Point Humidity Pressure Visibility Wind Dir Wind Speed Gust Speed Precip Events Conditions
12:53 AM 69.1 °F - 61.0 °F 75% 30.09 in 10.0 mi Calm Calm - N/A   Clear
1:53 AM 68.0 °F - 61.0 °F 78% 30.09 in 10.0 mi Calm Calm - N/A   Partly Cloudy
2:53 AM 66.9 °F - 61.0 °F 81% 30.09 in 10.0 mi Calm Calm - N/A   Clear
3:53 AM 64.9 °F - 61.0 °F 87% 30.09 in 10.0 mi Calm Calm - N/A   Clear
4:53 AM 64.0 °F - 61.0 °F 90% 30.11 in 10.0 mi Calm Calm - N/A   Clear
5:53 AM 62.1 °F - 60.1 °F 93% 30.12 in 10.0 mi Calm Calm - N/A   Clear
6:53 AM 63.0 °F - 60.1 °F 90% 30.14 in 10.0 mi Calm Calm - N/A   Clear
7:53 AM 63.0 °F - 61.0 °F 93% 30.16 in 10.0 mi Calm Calm - N/A   Clear
8:53 AM 66.0 °F - 62.1 °F 87% 30.17 in 10.0 mi Calm Calm - N/A   Clear
9:53 AM 70.0 °F - 63.0 °F 78% 30.19 in 10.0 mi Calm Calm - N/A   Clear
10:53 AM 75.0 °F - 64.0 °F 69% 30.19 in 10.0 mi Calm Calm - N/A   Clear
11:53 AM 80.1 °F 81.2 °F 62.1 °F 54% 30.19 in 10.0 mi Variable 3.5 mph - N/A   Clear
12:53 PM 82.9 °F 83.2 °F 60.1 °F 46% 30.18 in 10.0 mi Variable 3.5 mph - N/A   Clear
1:53 PM 86.0 °F 86.1 °F 61.0 °F 43% 30.17 in 10.0 mi Calm Calm - N/A   Clear
2:53 PM 87.1 °F 87.0 °F 61.0 °F 41% 30.16 in 10.0 mi Calm Calm - N/A   Clear
3:53 PM 88.0 °F 87.9 °F 61.0 °F 40% 30.15 in 10.0 mi Calm Calm - N/A   Clear
4:53 PM 88.0 °F 88.4 °F 62.1 °F 42% 30.14 in 10.0 mi Calm Calm - N/A   Clear
5:53 PM 87.1 °F 87.0 °F 61.0 °F 41% 30.14 in 10.0 mi Calm Calm - N/A   Clear
6:53 PM 84.0 °F 84.9 °F 63.0 °F 49% 30.14 in 10.0 mi Calm Calm - N/A   Clear
7:53 PM 78.1 °F - 63.0 °F 60% 30.16 in 10.0 mi Calm Calm - N/A   Clear
8:53 PM 77.0 °F - 63.0 °F 62% 30.17 in 10.0 mi Calm Calm - N/A   Clear
9:53 PM 73.9 °F - 63.0 °F 68% 30.18 in 10.0 mi Calm Calm - N/A   Clear
10:53 PM 73.0 °F - 64.0 °F 73% 30.18 in 10.0 mi Calm Calm - N/A   Clear
11:53 PM 73.0 °F - 64.0 °F 73% 30.18 in 10.0 mi Calm Calm - N/A   Clear